Check out our new BloomSky Weather System.

Active alerts

Houston, TX
  Details for Houston, TX Dense Fog Advisory


Thunder radar  blitzortung!


Rain radar more information rain snow radar


Visit our other weather sites:

Template documentation
and downloads

And another site



Weather Underground History page Text

Daily Summary for August 1, 2017 Units:  English    Metric   Both
« Previous Day
Next Day »
Daily Weekly Monthly Yearly Custom
  High: Low: Average:
Temperature: 95.4 °F 72.9 °F 84.1 °F
Dew Point: 76.8 °F 68.4 °F 73 °F
Humidity: 89 % 51 % 71 %
Wind Speed: 8.0 mph 0.0 mph 1.8 mph
Wind Gust: 17.0 mph - -
Wind:- - SE
Pressure: 29.99 in 29.91 in -
Precipitation: 0.00 in    
Historical Graphs
 
 
Tabular Data for August 1, 2017
Time Temperature Dew Point Pressure Wind Wind Speed Wind Gust Humidity Rainfall Rate (Hourly)
00:00 78.4 °F 68.7 °F 29.96 in Calm     72 % 0.00 in
00:05 78.3 °F 68.5 °F 29.96 in Calm     72 % 0.00 in
00:10 78.1 °F 68.4 °F 29.96 in Calm     72 % 0.00 in
00:15 77.7 °F 68.4 °F 29.96 in Calm     73 % 0.00 in
00:20 77.7 °F 68.4 °F 29.96 in Calm     73 % 0.00 in
00:25 77.7 °F 68.7 °F 29.96 in Calm     74 % 0.00 in
00:30 77.7 °F 68.7 °F 29.96 in Calm     74 % 0.00 in
00:35 77.5 °F 68.5 °F 29.96 in Calm     74 % 0.00 in
00:40 77.4 °F 68.9 °F 29.96 in Calm     75 % 0.00 in
00:45 77.4 °F 68.9 °F 29.96 in Calm     75 % 0.00 in
00:50 77.2 °F 68.7 °F 29.96 in Calm     75 % 0.00 in
00:55 76.8 °F 68.7 °F 29.96 in Calm     76 % 0.00 in
01:01 76.6 °F 68.5 °F 29.96 in Calm     76 % 0.00 in
01:06 76.5 °F 68.7 °F 29.96 in Calm     77 % 0.00 in
01:11 76.5 °F 69.1 °F 29.96 in Calm     78 % 0.00 in
01:16 76.5 °F 69.1 °F 29.96 in Calm     78 % 0.00 in
01:21 76.5 °F 69.1 °F 29.96 in Calm     78 % 0.00 in
01:26 76.5 °F 69.1 °F 29.96 in Calm     78 % 0.00 in
01:31 76.3 °F 69.3 °F 29.96 in Calm     79 % 0.00 in
01:36 76.3 °F 69.3 °F 29.96 in Calm     79 % 0.00 in
01:41 76.3 °F 69.3 °F 29.96 in Calm     79 % 0.00 in
01:46 76.5 °F 69.4 °F 29.96 in Calm   1.0 mph 79 % 0.00 in
01:51 76.5 °F 69.4 °F 29.96 in Calm   1.0 mph 79 % 0.00 in
02:00 76.5 °F 69.1 °F 29.96 in Calm   1.0 mph 78 % 0.00 in
02:05 76.5 °F 69.4 °F 29.96 in Calm   1.0 mph 79 % 0.00 in
02:10 76.3 °F 69.3 °F 29.96 in Calm     79 % 0.00 in
02:15 76.1 °F 69.1 °F 29.95 in Calm     79 % 0.00 in
02:20 75.7 °F 68.7 °F 29.95 in Calm     79 % 0.00 in
02:25 75.6 °F 68.9 °F 29.95 in Calm     80 % 0.00 in
02:27 75.6 °F 68.9 °F 29.95 in Calm     80 % 0.00 in
02:32 75.4 °F 69.4 °F 29.95 in Calm     82 % 0.00 in
02:37 75.4 °F 69.4 °F 29.95 in Calm     82 % 0.00 in
02:45 75.4 °F 69.4 °F 29.95 in Calm   1.0 mph 82 % 0.00 in
02:50 75.4 °F 69.4 °F 29.95 in Calm   1.0 mph 82 % 0.00 in
02:55 75.6 °F 69.6 °F 29.95 in Calm   1.0 mph 82 % 0.00 in
03:00 75.6 °F 69.6 °F 29.95 in Calm   1.0 mph 82 % 0.00 in
03:05 75.7 °F 69.8 °F 29.95 in Calm   1.0 mph 82 % 0.00 in
03:10 75.6 °F 69.6 °F 29.95 in Calm   1.0 mph 82 % 0.00 in
03:13 75.6 °F 69.6 °F 29.95 in Calm   1.0 mph 82 % 0.00 in
03:18 75.6 °F 69.6 °F 29.95 in Calm   1.0 mph 82 % 0.00 in
03:23 75.4 °F 69.4 °F 29.95 in Calm     82 % 0.00 in
03:28 75.0 °F 69.4 °F 29.95 in Calm     83 % 0.00 in
03:33 74.8 °F 69.3 °F 29.96 in Calm     83 % 0.00 in
03:38 74.7 °F 69.4 °F 29.96 in Calm     84 % 0.00 in
03:43 74.7 °F 69.8 °F 29.96 in Calm   1.0 mph 85 % 0.00 in
03:48 74.5 °F 69.6 °F 29.96 in Calm   1.0 mph 85 % 0.00 in
03:53 74.5 °F 70.0 °F 29.95 in Calm   1.0 mph 86 % 0.00 in
03:58 74.5 °F 70.0 °F 29.95 in NW 1.0 mph 1.0 mph 86 % 0.00 in
04:03 74.5 °F 70.0 °F 29.95 in Calm   1.0 mph 86 % 0.00 in
04:08 74.3 °F 69.8 °F 29.95 in Calm   1.0 mph 86 % 0.00 in
04:13 74.1 °F 69.6 °F 29.95 in Calm   1.0 mph 86 % 0.00 in
04:18 73.9 °F 69.4 °F 29.96 in Calm     86 % 0.00 in
04:23 73.8 °F 69.6 °F 29.95 in Calm     87 % 0.00 in
04:28 73.6 °F 69.4 °F 29.95 in Calm     87 % 0.00 in
04:33 73.8 °F 69.6 °F 29.96 in Calm     87 % 0.00 in
04:38 73.8 °F 69.6 °F 29.96 in Calm     87 % 0.00 in
04:43 73.8 °F 69.6 °F 29.96 in Calm     87 % 0.00 in
04:48 73.6 °F 69.4 °F 29.96 in Calm     87 % 0.00 in
04:53 73.6 °F 69.4 °F 29.95 in Calm     87 % 0.00 in
04:58 73.6 °F 69.4 °F 29.96 in Calm     87 % 0.00 in
05:03 73.6 °F 69.4 °F 29.96 in Calm     87 % 0.00 in
05:08 73.6 °F 69.4 °F 29.96 in Calm     87 % 0.00 in
05:13 73.8 °F 69.6 °F 29.96 in Calm     87 % 0.00 in
05:18 73.8 °F 69.6 °F 29.96 in Calm     87 % 0.00 in
05:23 73.6 °F 69.4 °F 29.96 in Calm     87 % 0.00 in
05:28 73.6 °F 69.4 °F 29.96 in Calm     87 % 0.00 in
05:33 73.4 °F 69.3 °F 29.96 in Calm     87 % 0.00 in
05:38 73.2 °F 69.1 °F 29.96 in Calm     87 % 0.00 in
05:43 73.0 °F 68.9 °F 29.96 in Calm     87 % 0.00 in
05:48 73.0 °F 69.3 °F 29.96 in Calm     88 % 0.00 in
05:53 73.0 °F 69.3 °F 29.96 in Calm     88 % 0.00 in
05:58 73.2 °F 69.4 °F 29.96 in Calm     88 % 0.00 in
05:59 73.2 °F 69.4 °F 29.96 in Calm     88 % 0.00 in
06:04 73.2 °F 69.1 °F 29.96 in Calm   1.0 mph 87 % 0.00 in
06:09 73.2 °F 69.1 °F 29.96 in Calm   1.0 mph 87 % 0.00 in
06:14 73.2 °F 69.4 °F 29.96 in Calm   1.0 mph 88 % 0.00 in
06:20 73.0 °F 69.3 °F 29.96 in Calm     88 % 0.00 in
06:25 72.9 °F 69.1 °F 29.96 in Calm     88 % 0.00 in
06:26 72.9 °F 69.1 °F 29.96 in Calm     88 % 0.00 in
06:31 72.9 °F 69.1 °F 29.96 in Calm     88 % 0.00 in
06:36 73.0 °F 69.6 °F 29.96 in Calm     89 % 0.00 in
06:41 73.0 °F 69.6 °F 29.96 in Calm     89 % 0.00 in
06:46 72.9 °F 69.1 °F 29.96 in Calm     88 % 0.00 in
06:51 72.9 °F 69.4 °F 29.97 in Calm     89 % 0.00 in
06:56 73.0 °F 69.6 °F 29.97 in Calm     89 % 0.00 in
07:01 72.9 °F 69.4 °F 29.97 in Calm     89 % 0.00 in
07:06 73.0 °F 69.6 °F 29.97 in Calm     89 % 0.00 in
07:11 73.2 °F 69.8 °F 29.97 in Calm     89 % 0.00 in
07:16 73.2 °F 69.8 °F 29.97 in NW 1.0 mph 1.0 mph 89 % 0.00 in
07:21 73.6 °F 70.2 °F 29.97 in Calm   1.0 mph 89 % 0.00 in
07:26 73.9 °F 70.2 °F 29.97 in NW 1.0 mph 2.0 mph 88 % 0.00 in
07:31 74.7 °F 70.5 °F 29.97 in Calm   2.0 mph 87 % 0.00 in
07:36 75.4 °F 70.5 °F 29.98 in Calm   3.0 mph 85 % 0.00 in
07:41 75.9 °F 70.3 °F 29.97 in North 1.0 mph 3.0 mph 83 % 0.00 in
07:46 76.6 °F 70.7 °F 29.98 in WNW 1.0 mph 3.0 mph 82 % 0.00 in
07:51 77.0 °F 70.7 °F 29.98 in Calm   4.0 mph 81 % 0.00 in
07:56 77.4 °F 71.1 °F 29.98 in Calm   4.0 mph 81 % 0.00 in
08:01 78.1 °F 71.4 °F 29.98 in ENE 2.0 mph 4.0 mph 80 % 0.00 in
08:06 78.4 °F 71.4 °F 29.98 in NNE 2.0 mph 4.0 mph 79 % 0.00 in
08:11 79.0 °F 72.0 °F 29.98 in NNW 4.0 mph 4.0 mph 79 % 0.00 in
08:16 79.3 °F 72.0 °F 29.98 in NNW 2.0 mph 4.0 mph 78 % 0.00 in
08:21 79.7 °F 72.7 °F 29.98 in NW 1.0 mph 4.0 mph 79 % 0.00 in
08:26 80.1 °F 72.5 °F 29.98 in Calm   4.0 mph 78 % 0.00 in
08:31 80.6 °F 73.0 °F 29.98 in West 1.0 mph 4.0 mph 78 % 0.00 in
08:36 81.0 °F 73.0 °F 29.98 in Calm   4.0 mph 77 % 0.00 in
08:41 81.7 °F 73.8 °F 29.98 in NE 2.0 mph 3.0 mph 77 % 0.00 in
08:46 82.2 °F 73.6 °F 29.99 in Calm   3.0 mph 75 % 0.00 in
08:51 82.4 °F 73.2 °F 29.99 in ENE 1.0 mph 4.0 mph 74 % 0.00 in
08:56 82.8 °F 73.9 °F 29.99 in Calm   6.0 mph 75 % 0.00 in
09:01 83.3 °F 74.1 °F 29.99 in NE 2.0 mph 6.0 mph 74 % 0.00 in
09:06 83.3 °F 74.1 °F 29.99 in West 1.0 mph 6.0 mph 74 % 0.00 in
09:11 82.9 °F 74.1 °F 29.99 in ENE 2.0 mph 5.0 mph 75 % 0.00 in
09:16 82.9 °F 74.1 °F 29.99 in ENE 2.0 mph 6.0 mph 75 % 0.00 in
09:21 82.8 °F 74.5 °F 29.99 in NW 1.0 mph 7.0 mph 76 % 0.00 in
09:26 82.9 °F 74.7 °F 29.99 in NE 1.0 mph 7.0 mph 76 % 0.00 in
09:31 83.1 °F 75.2 °F 29.99 in NW 2.0 mph 7.0 mph 77 % 0.00 in
09:36 83.1 °F 74.8 °F 29.99 in NNW 5.0 mph 5.0 mph 76 % 0.00 in
09:41 83.7 °F 75.7 °F 29.99 in ENE 3.0 mph 6.0 mph 77 % 0.00 in
09:47 84.4 °F 75.6 °F 29.99 in NNW 2.0 mph 6.0 mph 75 % 0.00 in
09:51 84.7 °F 75.6 °F 29.99 in ENE 3.0 mph 7.0 mph 74 % 0.00 in
09:56 85.3 °F 76.1 °F 29.99 in NNW 2.0 mph 7.0 mph 74 % 0.00 in
10:02 85.6 °F 76.5 °F 29.99 in Calm   7.0 mph 74 % 0.00 in
10:06 86.5 °F 76.5 °F 29.99 in NW 2.0 mph 6.0 mph 72 % 0.00 in
10:12 87.3 °F 76.3 °F 29.99 in ESE 1.0 mph 6.0 mph 70 % 0.00 in
10:17 87.4 °F 75.6 °F 29.99 in ENE 2.0 mph 8.0 mph 68 % 0.00 in
10:22 87.8 °F 76.3 °F 29.99 in ENE 2.0 mph 8.0 mph 69 % 0.00 in
10:27 88.3 °F 76.5 °F 29.99 in NNW 2.0 mph 8.0 mph 68 % 0.00 in
10:32 88.3 °F 75.0 °F 29.99 in Calm   6.0 mph 65 % 0.00 in
10:37 88.9 °F 76.5 °F 29.99 in ENE 3.0 mph 5.0 mph 67 % 0.00 in
10:42 88.7 °F 75.4 °F 29.99 in NW 3.0 mph 7.0 mph 65 % 0.00 in
10:47 88.9 °F 75.6 °F 29.99 in NNW 2.0 mph 7.0 mph 65 % 0.00 in
10:52 89.2 °F 75.4 °F 29.99 in Calm   7.0 mph 64 % 0.00 in
10:57 89.4 °F 75.6 °F 29.99 in East 4.0 mph 6.0 mph 64 % 0.00 in
11:02 89.4 °F 76.1 °F 29.99 in East 4.0 mph 7.0 mph 65 % 0.00 in
11:07 89.4 °F 76.1 °F 29.99 in Calm   10.0 mph 65 % 0.00 in
11:12 89.8 °F 75.6 °F 29.99 in East 2.0 mph 10.0 mph 63 % 0.00 in
11:17 90.1 °F 75.9 °F 29.99 in SSE 2.0 mph 10.0 mph 63 % 0.00 in
11:22 90.0 °F 76.1 °F 29.99 in North 1.0 mph 9.0 mph 64 % 0.00 in
11:27 90.1 °F 75.4 °F 29.99 in ENE 5.0 mph 9.0 mph 62 % 0.00 in
11:32 90.0 °F 76.1 °F 29.99 in East 3.0 mph 9.0 mph 64 % 0.00 in
11:33 90.0 °F 76.1 °F 29.98 in WNW 2.0 mph 9.0 mph 64 % 0.00 in
11:38 90.5 °F 75.7 °F 29.98 in East 4.0 mph 8.0 mph 62 % 0.00 in
11:43 90.7 °F 74.8 °F 29.98 in ENE 1.0 mph 8.0 mph 60 % 0.00 in
11:48 91.4 °F 76.1 °F 29.98 in East 3.0 mph 8.0 mph 61 % 0.00 in
11:53 92.1 °F 75.2 °F 29.98 in NW 4.0 mph 9.0 mph 58 % 0.00 in
11:58 92.5 °F 76.6 °F 29.98 in ENE 2.0 mph 10.0 mph 60 % 0.00 in
12:03 92.5 °F 75.0 °F 29.98 in ENE 2.0 mph 10.0 mph 57 % 0.00 in
12:08 91.8 °F 75.4 °F 29.97 in ENE 2.0 mph 10.0 mph 59 % 0.00 in
12:13 91.8 °F 75.9 °F 29.97 in NE 1.0 mph 7.0 mph 60 % 0.00 in
12:18 91.6 °F 75.2 °F 29.97 in North 4.0 mph 6.0 mph 59 % 0.00 in
12:23 90.7 °F 74.3 °F 29.97 in WNW 1.0 mph 9.0 mph 59 % 0.00 in
12:28 90.9 °F 74.5 °F 29.97 in East 2.0 mph 9.0 mph 59 % 0.00 in
12:33 91.6 °F 75.2 °F 29.96 in WNW 3.0 mph 9.0 mph 59 % 0.00 in
12:38 92.1 °F 75.7 °F 29.96 in North 2.0 mph 8.0 mph 59 % 0.00 in
12:43 92.1 °F 75.2 °F 29.97 in NNW 4.0 mph 8.0 mph 58 % 0.00 in
12:48 91.6 °F 75.2 °F 29.96 in NW 6.0 mph 8.0 mph 59 % 0.00 in
12:53 91.6 °F 75.2 °F 29.96 in ENE 6.0 mph 8.0 mph 59 % 0.00 in
12:58 92.3 °F 75.9 °F 29.96 in ESE 3.0 mph 7.0 mph 59 % 0.00 in
13:03 92.7 °F 75.2 °F 29.96 in ESE 3.0 mph 6.0 mph 57 % 0.00 in
13:08 91.9 °F 75.0 °F 29.96 in East 2.0 mph 6.0 mph 58 % 0.00 in
13:13 91.8 °F 74.8 °F 29.96 in SE 1.0 mph 6.0 mph 58 % 0.00 in
13:18 90.9 °F 74.5 °F 29.96 in ESE 1.0 mph 7.0 mph 59 % 0.00 in
13:23 90.5 °F 74.1 °F 29.96 in ESE 4.0 mph 8.0 mph 59 % 0.00 in
13:28 90.5 °F 74.1 °F 29.96 in ESE 2.0 mph 8.0 mph 59 % 0.00 in
13:33 90.7 °F 75.9 °F 29.96 in NE 2.0 mph 8.0 mph 62 % 0.00 in
13:38 91.9 °F 76.1 °F 29.96 in East 2.0 mph 6.0 mph 60 % 0.00 in
13:43 92.8 °F 76.8 °F 29.95 in WNW 1.0 mph 7.0 mph 60 % 0.00 in
13:48 92.7 °F 75.7 °F 29.95 in ENE 2.0 mph 8.0 mph 58 % 0.00 in
13:53 92.5 °F 76.1 °F 29.95 in East 1.0 mph 8.0 mph 59 % 0.00 in
13:58 92.7 °F 75.7 °F 29.95 in NW 2.0 mph 8.0 mph 58 % 0.00 in
14:03 93.4 °F 76.8 °F 29.94 in NNE 3.0 mph 8.0 mph 59 % 0.00 in
14:08 93.9 °F 76.3 °F 29.94 in WSW 2.0 mph 8.0 mph 57 % 0.00 in
14:13 94.5 °F 75.2 °F 29.94 in NNE 6.0 mph 8.0 mph 54 % 0.00 in
14:18 94.3 °F 75.0 °F 29.94 in SE 4.0 mph 8.0 mph 54 % 0.00 in
14:23 93.9 °F 75.2 °F 29.94 in ESE 5.0 mph 9.0 mph 55 % 0.00 in
14:28 94.1 °F 74.3 °F 29.94 in South 2.0 mph 9.0 mph 53 % 0.00 in
14:33 94.3 °F 75.6 °F 29.94 in NNE 3.0 mph 9.0 mph 55 % 0.00 in
14:38 94.8 °F 76.1 °F 29.94 in SE 1.0 mph 9.0 mph 55 % 0.00 in
14:43 95.4 °F 75.6 °F 29.94 in ESE 2.0 mph 8.0 mph 53 % 0.00 in
14:44 95.4 °F 75.6 °F 29.94 in ESE 6.0 mph 8.0 mph 53 % 0.00 in
14:49 95.4 °F 75.6 °F 29.94 in SE 6.0 mph 8.0 mph 53 % 0.00 in
14:54 95.2 °F 74.1 °F 29.93 in WNW 4.0 mph 9.0 mph 51 % 0.00 in
14:59 94.6 °F 73.8 °F 29.93 in NE 1.0 mph 17.0 mph 51 % 0.00 in
15:04 93.9 °F 73.6 °F 29.93 in East 3.0 mph 17.0 mph 52 % 0.00 in
15:07 93.6 °F 73.8 °F 29.93 in Calm   17.0 mph 53 % 0.00 in
15:08 93.6 °F 73.8 °F 29.93 in ESE 2.0 mph 17.0 mph 53 % 0.00 in
15:10 93.4 °F 73.0 °F 29.93 in ESE 1.0 mph 17.0 mph 52 % 0.00 in
15:15 93.0 °F 73.4 °F 29.93 in Calm   6.0 mph 53 % 0.00 in
15:20 93.0 °F 73.4 °F 29.93 in East 1.0 mph 7.0 mph 53 % 0.00 in
15:23 92.8 °F 73.8 °F 29.92 in ENE 1.0 mph 7.0 mph 54 % 0.00 in
15:28 92.7 °F 73.6 °F 29.92 in ENE 2.0 mph 7.0 mph 54 % 0.00 in
15:33 92.7 °F 73.6 °F 29.92 in East 2.0 mph 7.0 mph 54 % 0.00 in
15:38 92.7 °F 74.1 °F 29.92 in East 2.0 mph 6.0 mph 55 % 0.00 in
15:43 92.7 °F 74.7 °F 29.92 in East 6.0 mph 6.0 mph 56 % 0.00 in
15:48 92.1 °F 74.7 °F 29.92 in NNE 2.0 mph 8.0 mph 57 % 0.00 in
15:53 91.8 °F 74.3 °F 29.92 in ESE 3.0 mph 9.0 mph 57 % 0.00 in
15:58 91.8 °F 74.8 °F 29.92 in ENE 5.0 mph 9.0 mph 58 % 0.00 in
16:03 92.5 °F 75.0 °F 29.92 in ENE 2.0 mph 9.0 mph 57 % 0.00 in
16:08 92.8 °F 74.3 °F 29.92 in NE 4.0 mph 9.0 mph 55 % 0.00 in
16:13 93.4 °F 74.3 °F 29.92 in SE 4.0 mph 10.0 mph 54 % 0.00 in
16:18 93.4 °F 74.3 °F 29.92 in NW 4.0 mph 10.0 mph 54 % 0.00 in
16:23 93.6 °F 73.8 °F 29.91 in East 4.0 mph 10.0 mph 53 % 0.00 in
16:28 93.7 °F 74.7 °F 29.91 in ESE 8.0 mph 10.0 mph 54 % 0.00 in
16:33 94.1 °F 75.9 °F 29.91 in East 1.0 mph 10.0 mph 56 % 0.00 in
16:38 94.3 °F 75.0 °F 29.91 in ESE 7.0 mph 10.0 mph 54 % 0.00 in
16:43 93.7 °F 74.7 °F 29.91 in SSE 5.0 mph 10.0 mph 54 % 0.00 in
16:48 93.4 °F 74.3 °F 29.91 in East 7.0 mph 10.0 mph 54 % 0.00 in
16:53 92.7 °F 74.7 °F 29.91 in ESE 4.0 mph 10.0 mph 56 % 0.00 in
16:58 92.5 °F 75.0 °F 29.91 in SE 1.0 mph 10.0 mph 57 % 0.00 in
17:03 92.8 °F 75.4 °F 29.91 in SSE 6.0 mph 12.0 mph 57 % 0.00 in
17:08 93.0 °F 74.5 °F 29.91 in North 3.0 mph 12.0 mph 55 % 0.00 in
17:13 92.8 °F 74.8 °F 29.91 in SSE 8.0 mph 12.0 mph 56 % 0.00 in
17:18 92.8 °F 74.8 °F 29.91 in East 5.0 mph 10.0 mph 56 % 0.00 in
17:24 93.2 °F 74.7 °F 29.91 in ESE 1.0 mph 10.0 mph 55 % 0.00 in
17:29 93.6 °F 74.5 °F 29.91 in ESE 7.0 mph 10.0 mph 54 % 0.00 in
17:34 92.8 °F 73.8 °F 29.91 in East 2.0 mph 11.0 mph 54 % 0.00 in
17:39 92.1 °F 73.0 °F 29.91 in East 4.0 mph 12.0 mph 54 % 0.00 in
17:44 91.8 °F 72.7 °F 29.91 in NNE 2.0 mph 12.0 mph 54 % 0.00 in
17:49 91.2 °F 73.4 °F 29.91 in NNW 2.0 mph 12.0 mph 56 % 0.00 in
17:54 91.2 °F 73.8 °F 29.91 in SE 6.0 mph 10.0 mph 57 % 0.00 in
17:59 91.0 °F 73.8 °F 29.92 in SSE 4.0 mph 12.0 mph 57 % 0.00 in
18:04 91.2 °F 73.4 °F 29.92 in South 4.0 mph 12.0 mph 56 % 0.00 in
18:09 91.8 °F 73.2 °F 29.92 in ESE 2.0 mph 13.0 mph 55 % 0.00 in
18:14 92.1 °F 74.1 °F 29.92 in ESE 2.0 mph 13.0 mph 56 % 0.00 in
18:19 91.9 °F 73.9 °F 29.92 in ESE 3.0 mph 13.0 mph 56 % 0.00 in
18:24 91.6 °F 74.1 °F 29.92 in South 5.0 mph 9.0 mph 57 % 0.00 in
18:29 91.6 °F 74.1 °F 29.92 in SSE 3.0 mph 9.0 mph 57 % 0.00 in
18:34 91.4 °F 73.9 °F 29.92 in East 4.0 mph 9.0 mph 57 % 0.00 in
18:39 91.2 °F 74.8 °F 29.93 in SE 5.0 mph 9.0 mph 59 % 0.00 in
18:44 91.0 °F 74.7 °F 29.93 in SE 1.0 mph 8.0 mph 59 % 0.00 in
18:49 90.7 °F 74.8 °F 29.93 in SSW 1.0 mph 11.0 mph 60 % 0.00 in
18:54 90.3 °F 74.5 °F 29.93 in SE 8.0 mph 11.0 mph 60 % 0.00 in
18:59 90.1 °F 74.8 °F 29.92 in WNW 3.0 mph 11.0 mph 61 % 0.00 in
19:04 89.8 °F 74.5 °F 29.93 in ESE 6.0 mph 10.0 mph 61 % 0.00 in
19:09 89.4 °F 74.7 °F 29.93 in ESE 4.0 mph 12.0 mph 62 % 0.00 in
19:14 89.2 °F 75.0 °F 29.93 in SSE 2.0 mph 12.0 mph 63 % 0.00 in
19:19 89.1 °F 75.2 °F 29.93 in SE 3.0 mph 12.0 mph 64 % 0.00 in
19:24 88.9 °F 75.2 °F 29.93 in ESE 5.0 mph 8.0 mph 64 % 0.00 in
19:29 88.9 °F 75.2 °F 29.93 in ESE 4.0 mph 8.0 mph 64 % 0.00 in
19:34 88.5 °F 75.2 °F 29.93 in SSE 6.0 mph 7.0 mph 65 % 0.00 in
19:39 88.3 °F 75.6 °F 29.94 in East 3.0 mph 10.0 mph 66 % 0.00 in
19:44 88.2 °F 75.4 °F 29.94 in ESE 3.0 mph 10.0 mph 66 % 0.00 in
19:49 88.0 °F 75.6 °F 29.94 in SE 6.0 mph 12.0 mph 67 % 0.00 in
19:54 87.8 °F 75.4 °F 29.94 in NE 4.0 mph 12.0 mph 67 % 0.00 in
19:59 87.6 °F 75.4 °F 29.94 in East 4.0 mph 12.0 mph 67 % 0.00 in
20:04 87.4 °F 75.6 °F 29.94 in East 8.0 mph 10.0 mph 68 % 0.00 in
20:09 87.3 °F 75.9 °F 29.93 in ESE 4.0 mph 10.0 mph 69 % 0.00 in
20:14 87.1 °F 75.7 °F 29.93 in ESE 5.0 mph 9.0 mph 69 % 0.00 in
20:19 86.9 °F 75.9 °F 29.93 in East 3.0 mph 9.0 mph 70 % 0.00 in
20:24 86.7 °F 75.7 °F 29.93 in SE 3.0 mph 8.0 mph 70 % 0.00 in
20:29 86.5 °F 75.6 °F 29.94 in SE 3.0 mph 8.0 mph 70 % 0.00 in
20:34 86.4 °F 75.9 °F 29.94 in SE 5.0 mph 8.0 mph 71 % 0.00 in
20:39 86.2 °F 76.1 °F 29.94 in ESE 5.0 mph 8.0 mph 72 % 0.00 in
20:44 86.2 °F 76.1 °F 29.94 in ESE 3.0 mph 7.0 mph 72 % 0.00 in
20:49 86.0 °F 76.3 °F 29.94 in SSE 5.0 mph 7.0 mph 73 % 0.00 in
20:54 85.8 °F 76.1 °F 29.94 in ESE 4.0 mph 7.0 mph 73 % 0.00 in
20:59 85.6 °F 75.6 °F 29.94 in SE 4.0 mph 9.0 mph 72 % 0.00 in
21:04 85.6 °F 75.6 °F 29.94 in East 4.0 mph 10.0 mph 72 % 0.00 in
21:09 85.5 °F 75.4 °F 29.95 in ESE 4.0 mph 10.0 mph 72 % 0.00 in
21:14 85.5 °F 75.4 °F 29.95 in ESE 3.0 mph 10.0 mph 72 % 0.00 in
21:19 85.5 °F 75.4 °F 29.95 in ESE 3.0 mph 8.0 mph 72 % 0.00 in
21:24 85.3 °F 75.2 °F 29.95 in East 2.0 mph 8.0 mph 72 % 0.00 in
21:29 85.1 °F 75.0 °F 29.95 in SE 1.0 mph 5.0 mph 72 % 0.00 in
21:34 84.9 °F 74.8 °F 29.96 in SE 2.0 mph 5.0 mph 72 % 0.00 in
21:35 84.9 °F 74.8 °F 29.96 in SE 2.0 mph 5.0 mph 72 % 0.00 in
21:40 84.7 °F 74.7 °F 29.95 in Calm   4.0 mph 72 % 0.00 in
21:45 84.7 °F 75.2 °F 29.96 in SE 1.0 mph 5.0 mph 73 % 0.00 in
21:50 84.6 °F 75.0 °F 29.96 in Calm   5.0 mph 73 % 0.00 in
21:55 84.6 °F 75.0 °F 29.96 in SE 1.0 mph 5.0 mph 73 % 0.00 in
22:00 84.4 °F 74.8 °F 29.96 in SE 1.0 mph 4.0 mph 73 % 0.00 in
22:05 84.4 °F 74.8 °F 29.96 in SE 2.0 mph 4.0 mph 73 % 0.00 in
22:10 84.2 °F 74.7 °F 29.96 in ESE 1.0 mph 3.0 mph 73 % 0.00 in
22:15 84.0 °F 74.8 °F 29.96 in ESE 1.0 mph 3.0 mph 74 % 0.00 in
22:20 84.0 °F 74.8 °F 29.96 in ESE 2.0 mph 3.0 mph 74 % 0.00 in
22:25 83.8 °F 75.0 °F 29.96 in ESE 2.0 mph 5.0 mph 75 % 0.00 in
22:30 83.8 °F 75.0 °F 29.96 in SE 1.0 mph 5.0 mph 75 % 0.00 in
22:35 83.7 °F 74.8 °F 29.97 in ESE 1.0 mph 5.0 mph 75 % 0.00 in
22:40 83.7 °F 74.8 °F 29.97 in Calm   4.0 mph 75 % 0.00 in
22:45 83.5 °F 74.7 °F 29.97 in Calm   3.0 mph 75 % 0.00 in
22:50 83.1 °F 74.8 °F 29.97 in Calm   2.0 mph 76 % 0.00 in
22:55 83.1 °F 75.2 °F 29.97 in Calm   1.0 mph 77 % 0.00 in
23:00 82.8 °F 74.8 °F 29.97 in Calm   1.0 mph 77 % 0.00 in
23:05 82.8 °F 74.8 °F 29.97 in Calm   2.0 mph 77 % 0.00 in
23:10 82.6 °F 74.7 °F 29.97 in Calm   2.0 mph 77 % 0.00 in
23:15 82.4 °F 74.8 °F 29.97 in Calm   2.0 mph 78 % 0.00 in
23:20 82.0 °F 74.5 °F 29.97 in Calm   1.0 mph 78 % 0.00 in
23:25 82.0 °F 74.8 °F 29.97 in Calm   1.0 mph 79 % 0.00 in
23:30 81.9 °F 74.7 °F 29.97 in ENE 1.0 mph 1.0 mph 79 % 0.00 in
23:35 81.9 °F 74.7 °F 29.97 in Calm   1.0 mph 79 % 0.00 in
23:40 81.7 °F 74.5 °F 29.97 in ENE 1.0 mph 1.0 mph 79 % 0.00 in
23:45 81.7 °F 74.8 °F 29.97 in Calm   1.0 mph 80 % 0.00 in
23:50 81.5 °F 74.7 °F 29.97 in Calm   1.0 mph 80 % 0.00 in
23:55 81.3 °F 74.5 °F 29.97 in Calm   1.0 mph 80 % 0.00 in
Spring, Texas: Villages of Bridgestone
Compliments of Weather Underground - 3.25 mb

Script developed by  Jim McMurry - jmcmurry@mwt.net Adapted for the template by  Wim van der Kuil - Leuven-Template.eu

You find our weather info also at:

UK Metoffice

WeatherCloud

Weather Underground

Mid-South Weather Network

AWEKAS

Citizen Weather Observer Program (CWOP)

HAMweather, WeatherForYou, PWS Weather

Equipment we use:

Weather-station
Davis Vantage Vue

Weather-program
Meteohub

Weather-server
Debian 7.9 x86 (Guest)

Provider
DreamHost

Davis Vantage Vue

Meteohub

Debian 7.9 x86 (Guest)

DreamHost